This is the latest recevied weather packets stored in our database for station/object K0CPM-2. If no packets are shown the sender has not sent any weather packets the latest 10 day(s).
| Time | Temp. | Humidity | Pressure | Rain* | Wind** | Luminosity | Snow |
|---|---|---|---|---|---|---|---|
| 1777723220 | 13.33° C | 97% | 1011.7 hPa | 0 mm | - | - | - |
| 1777722317 | 13.33° C | 97% | 1011.4 hPa | 0 mm | - | - | - |
| 1777721416 | 13.33° C | 98% | 1011.1 hPa | 0 mm | - | - | - |
| 1777720514 | 13.33° C | 98% | 1010.9 hPa | 0 mm | - | - | - |
| 1777719611 | 13.33° C | 98% | 1010.5 hPa | 0 mm | - | - | - |
| 1777718710 | 13.33° C | 98% | 1010.5 hPa | 0 mm | - | - | - |
| 1777717809 | 13.33° C | 98% | 1010.3 hPa | 0 mm | - | - | - |
| 1777716908 | 13.33° C | 98% | 1010.2 hPa | 0.25 mm | - | - | - |
| 1777716011 | 13.33° C | 98% | 1010.2 hPa | 0.25 mm | - | - | - |
| 1777715107 | 13.33° C | 98% | 1009.6 hPa | 0.25 mm | - | - | - |
| 1777714206 | 13.33° C | 98% | 1009.6 hPa | 0.25 mm | - | - | - |
| 1777713305 | 13.33° C | 98% | 1009.8 hPa | 0 mm | - | - | - |
| 1777712405 | 13.33° C | 98% | 1009.8 hPa | 0 mm | - | - | - |
| 1777711504 | 13.33° C | 98% | 1009 hPa | 0 mm | - | - | - |
| 1777710603 | 13.33° C | 98% | 1009 hPa | 0 mm | - | - | - |
| 1777709703 | 13.33° C | 98% | 1009.4 hPa | 1.27 mm | - | - | - |
| 1777708801 | 13.89° C | 98% | 1009.3 hPa | 5.59 mm | - | - | - |
| 1777707960 | 13.33° C | 89% | 1009.7 hPa | 7.87 mm | - | - | - |
| 1777707058 | 13.33° C | 89% | 1010.4 hPa | 9.14 mm | - | - | - |
| 1777706157 | 13.33° C | 89% | 1009.1 hPa | 7.87 mm | - | - | - |
| 1777705260 | 13.33° C | 89% | 1009.2 hPa | 3.56 mm | - | - | - |
| 1777704354 | 13.33° C | 89% | 1009.8 hPa | 2.29 mm | - | - | - |
| 1777703453 | 13.89° C | 89% | 1009.8 hPa | 6.35 mm | - | - | - |
| 1777702551 | 13.89° C | 89% | 1009.6 hPa | 6.35 mm | - | - | - |
| 1777701654 | 13.89° C | 89% | 1009.2 hPa | 6.6 mm | - | - | - |
* Rain latest hour (hover to see other rain measurements)
** Current wind speed in m/s (hover to see current wind gust speed)